Location: ????????
(54.9045°N, 39.1041°E)
Time: 12:30:59
(UTC+00:00)

GP-B - Pass Details

Date: 14 April 2024
Orbit: 624 x 629 km, 89.8° (Epoch: 21 May)

Event Time Altitude Azimuth Distance (km) Brightness Sun altitude
Rises 00:33:50 0° 358° (N) 2,936 7.1 -14.3°
Reaches altitude 10° 00:36:05 10° 355° (N) 2,023 6.2 -14.1°
Maximum altitude 00:40:26 58° 277° (W) 742 3.2 -13.6°
Enters shadow 00:43:45 17° 202° (SSW) 1,610 4.7 -13.3°
